Time,TemperatureF,DewpointF,PressureIn,WindDirection,WindDirectionDegrees,WindSpeedMPH,WindSpeedGustMPH,Humidity,HourlyPrecipIn,Conditions,Clouds,dailyrainin,SoftwareType,DateUTC
2013-10-15 00:00:00,51.8,39.2,30.11,West,269,0.0,0.0,62,0.00,,---,0.00,VWS V14.00,2013-10-15 07:00:00,
2013-10-15 00:01:00,51.5,38.9,30.11,West,269,0.0,0.0,62,0.00,,---,0.00,VWS V14.00,2013-10-15 07:01:00,
2013-10-15 00:06:00,51.3,39.2,30.11,West,269,0.0,0.0,63,0.00,,---,0.00,VWS V14.00,2013-10-15 07:06:00,
2013-10-15 00:11:00,51.2,39.0,30.10,West,269,0.0,0.0,63,0.00,,---,0.00,VWS V14.00,2013-10-15 07:11:00,
2013-10-15 00:15:00,51.2,39.0,30.11,West,269,0.0,0.0,63,0.00,,---,0.00,VWS V14.00,2013-10-15 07:15:00,
2013-10-15 00:16:00,50.9,39.2,30.10,West,269,0.0,0.0,64,0.00,,---,0.00,VWS V14.00,2013-10-15 07:16:00,
2013-10-15 00:21:00,50.7,39.0,30.10,West,269,0.0,1.0,64,0.00,,---,0.00,VWS V14.00,2013-10-15 07:21:00,
2013-10-15 00:26:00,50.5,39.2,30.10,West,269,0.0,0.0,65,0.00,,---,0.00,VWS V14.00,2013-10-15 07:26:00,
2013-10-15 00:30:00,50.6,38.9,30.10,West,269,0.0,1.0,64,0.00,,---,0.00,VWS V14.00,2013-10-15 07:30:00,
2013-10-15 00:31:00,50.3,39.0,30.10,West,269,0.0,0.0,65,0.00,,---,0.00,VWS V14.00,2013-10-15 07:31:00,
2013-10-15 00:36:00,50.0,39.1,30.10,West,269,0.0,0.0,66,0.00,,---,0.00,VWS V14.00,2013-10-15 07:36:00,
2013-10-15 00:41:00,49.8,38.9,30.10,West,269,0.0,0.0,66,0.00,,---,0.00,VWS V14.00,2013-10-15 07:41:00,
2013-10-15 00:45:00,50.0,39.1,30.10,West,269,0.0,0.0,66,0.00,,---,0.00,VWS V14.00,2013-10-15 07:45:00,
2013-10-15 00:46:00,49.6,38.7,30.10,West,269,0.0,0.0,66,0.00,,---,0.00,VWS V14.00,2013-10-15 07:46:00,
2013-10-15 00:51:00,49.5,39.0,30.11,West,269,0.0,0.0,67,0.00,,---,0.00,VWS V14.00,2013-10-15 07:51:00,
2013-10-15 00:56:00,49.3,38.8,30.11,West,269,0.0,0.0,67,0.00,,---,0.00,VWS V14.00,2013-10-15 07:56:00,
2013-10-15 01:00:00,49.4,38.9,30.10,West,269,0.0,0.0,67,0.00,,---,0.00,VWS V14.00,2013-10-15 08:00:00,
2013-10-15 01:01:00,49.1,38.6,30.10,West,269,0.0,0.0,67,0.00,,---,0.00,VWS V14.00,2013-10-15 08:01:00,
2013-10-15 01:06:00,48.9,38.8,30.10,West,269,0.0,1.0,68,0.00,,---,0.00,VWS V14.00,2013-10-15 08:06:00,
2013-10-15 01:11:00,48.8,38.7,30.11,West,269,0.0,0.0,68,0.00,,---,0.00,VWS V14.00,2013-10-15 08:11:00,
2013-10-15 01:15:00,48.9,38.8,30.11,West,269,0.0,1.0,68,0.00,,---,0.00,VWS V14.00,2013-10-15 08:15:00,
2013-10-15 01:16:00,48.7,38.6,30.10,West,269,0.0,0.0,68,0.00,,---,0.00,VWS V14.00,2013-10-15 08:16:00,
2013-10-15 01:21:00,48.6,38.5,30.10,West,269,0.0,0.0,68,0.00,,---,0.00,VWS V14.00,2013-10-15 08:21:00,
2013-10-15 01:26:00,48.5,38.8,30.10,West,269,0.0,0.0,69,0.00,,---,0.00,VWS V14.00,2013-10-15 08:26:00,
2013-10-15 01:30:00,48.5,38.8,30.10,West,269,0.0,0.0,69,0.00,,---,0.00,VWS V14.00,2013-10-15 08:30:00,
2013-10-15 01:31:00,48.4,38.7,30.10,West,269,0.0,0.0,69,0.00,,---,0.00,VWS V14.00,2013-10-15 08:31:00,
2013-10-15 01:36:00,48.3,38.6,30.10,West,269,0.0,0.0,69,0.00,,---,0.00,VWS V14.00,2013-10-15 08:36:00,
2013-10-15 01:41:00,48.2,38.9,30.10,West,269,0.0,0.0,70,0.00,,---,0.00,VWS V14.00,2013-10-15 08:41:00,
2013-10-15 01:45:00,48.2,38.5,30.10,West,269,0.0,0.0,69,0.00,,---,0.00,VWS V14.00,2013-10-15 08:45:00,
2013-10-15 01:46:00,48.1,38.8,30.10,West,269,0.0,0.0,70,0.00,,---,0.00,VWS V14.00,2013-10-15 08:46:00,
2013-10-15 01:50:00,48.0,38.7,30.10,West,269,0.0,0.0,70,0.00,,---,0.00,VWS V14.00,2013-10-15 08:50:00,
2013-10-15 01:55:00,47.9,38.6,30.11,West,269,0.0,0.0,70,0.00,,---,0.00,VWS V14.00,2013-10-15 08:55:00,
2013-10-15 02:00:00,47.8,38.5,30.11,West,269,0.0,0.0,70,0.00,,---,0.00,VWS V14.00,2013-10-15 09:00:00,
2013-10-15 02:05:00,47.7,38.4,30.11,West,269,0.0,0.0,70,0.00,,---,0.00,VWS V14.00,2013-10-15 09:05:00,
2013-10-15 02:10:00,47.6,38.7,30.11,West,269,0.0,0.0,71,0.00,,---,0.00,VWS V14.00,2013-10-15 09:10:00,
2013-10-15 02:15:00,47.5,38.9,30.11,West,269,0.0,0.0,72,0.00,,---,0.00,VWS V14.00,2013-10-15 09:15:00,
2013-10-15 02:20:00,47.4,38.5,30.11,West,269,0.0,0.0,71,0.00,,---,0.00,VWS V14.00,2013-10-15 09:20:00,
2013-10-15 02:25:00,47.2,38.7,30.11,West,269,0.0,0.0,72,0.00,,---,0.00,VWS V14.00,2013-10-15 09:25:00,
2013-10-15 02:30:00,47.1,38.5,30.10,West,269,0.0,0.0,72,0.00,,---,0.00,VWS V14.00,2013-10-15 09:30:00,
2013-10-15 02:35:00,46.9,38.4,30.10,West,269,0.0,0.0,72,0.00,,---,0.00,VWS V14.00,2013-10-15 09:35:00,
2013-10-15 02:40:00,46.8,38.3,30.10,West,269,0.0,0.0,72,0.00,,---,0.00,VWS V14.00,2013-10-15 09:40:00,
2013-10-15 02:45:00,46.7,38.2,30.10,West,269,0.0,0.0,72,0.00,,---,0.00,VWS V14.00,2013-10-15 09:45:00,
2013-10-15 02:50:00,46.5,38.3,30.10,West,269,0.0,0.0,73,0.00,,---,0.00,VWS V14.00,2013-10-15 09:50:00,
2013-10-15 02:55:00,46.3,38.1,30.10,West,269,0.0,0.0,73,0.00,,---,0.00,VWS V14.00,2013-10-15 09:55:00,
2013-10-15 03:00:00,46.1,38.3,30.10,West,269,0.0,0.0,74,0.00,,---,0.00,VWS V14.00,2013-10-15 10:00:00,
2013-10-15 03:05:00,46.0,38.2,30.10,West,269,0.0,0.0,74,0.00,,---,0.00,VWS V14.00,2013-10-15 10:05:00,
2013-10-15 03:10:00,45.9,38.1,30.10,West,269,0.0,0.0,74,0.00,,---,0.00,VWS V14.00,2013-10-15 10:10:00,
2013-10-15 03:15:00,45.7,37.9,30.09,West,269,0.0,1.0,74,0.00,,---,0.00,VWS V14.00,2013-10-15 10:15:00,
2013-10-15 03:20:00,45.5,37.7,30.09,West,269,0.0,1.0,74,0.00,,---,0.00,VWS V14.00,2013-10-15 10:20:00,
2013-10-15 03:25:00,45.3,37.5,30.09,West,269,0.0,0.0,74,0.00,,---,0.00,VWS V14.00,2013-10-15 10:25:00,
2013-10-15 03:30:00,45.2,37.4,30.09,West,269,0.0,0.0,74,0.00,,---,0.00,VWS V14.00,2013-10-15 10:30:00,
2013-10-15 03:35:00,45.1,37.7,30.09,West,269,0.0,0.0,75,0.00,,---,0.00,VWS V14.00,2013-10-15 10:35:00,
2013-10-15 03:40:00,44.9,37.5,30.09,West,269,0.0,0.0,75,0.00,,---,0.00,VWS V14.00,2013-10-15 10:40:00,
2013-10-15 03:45:00,44.8,37.4,30.09,West,269,0.0,0.0,75,0.00,,---,0.00,VWS V14.00,2013-10-15 10:45:00,
2013-10-15 03:50:00,44.7,37.6,30.09,West,269,1.0,2.0,76,0.00,,---,0.00,VWS V14.00,2013-10-15 10:50:00,
2013-10-15 03:54:00,44.6,37.8,30.09,West,269,0.0,2.0,77,0.00,,---,0.00,VWS V14.00,2013-10-15 10:54:00,
2013-10-15 03:59:00,44.6,38.2,30.09,West,269,0.0,2.0,78,0.00,,---,0.00,VWS V14.00,2013-10-15 10:59:00,
2013-10-15 04:00:00,44.6,37.5,30.09,West,269,2.0,3.0,76,0.00,,---,0.00,VWS V14.00,2013-10-15 11:00:00,
2013-10-15 04:04:00,44.5,38.1,30.09,West,269,0.0,2.0,78,0.00,,---,0.00,VWS V14.00,2013-10-15 11:04:00,
2013-10-15 04:09:00,44.3,37.6,30.09,West,269,0.0,0.0,77,0.00,,---,0.00,VWS V14.00,2013-10-15 11:09:00,
2013-10-15 04:14:00,44.3,37.6,30.09,West,269,0.0,0.0,77,0.00,,---,0.00,VWS V14.00,2013-10-15 11:14:00,
2013-10-15 04:15:00,44.4,37.7,30.09,West,269,0.0,2.0,77,0.00,,---,0.00,VWS V14.00,2013-10-15 11:15:00,
2013-10-15 04:19:00,44.2,37.8,30.09,West,269,0.0,0.0,78,0.00,,---,0.00,VWS V14.00,2013-10-15 11:19:00,
2013-10-15 04:24:00,44.2,37.8,30.09,West,269,0.0,0.0,78,0.00,,---,0.00,VWS V14.00,2013-10-15 11:24:00,
2013-10-15 04:29:00,44.2,37.8,30.09,West,269,0.0,0.0,78,0.00,,---,0.00,VWS V14.00,2013-10-15 11:29:00,
2013-10-15 04:30:00,44.2,37.8,30.09,West,269,0.0,0.0,78,0.00,,---,0.00,VWS V14.00,2013-10-15 11:30:00,
2013-10-15 04:34:00,44.2,38.1,30.09,West,269,0.0,0.0,79,0.00,,---,0.00,VWS V14.00,2013-10-15 11:34:00,
2013-10-15 04:39:00,44.1,38.0,30.09,West,269,0.0,0.0,79,0.00,,---,0.00,VWS V14.00,2013-10-15 11:39:00,
2013-10-15 04:44:00,44.1,38.0,30.09,West,269,0.0,0.0,79,0.00,,---,0.00,VWS V14.00,2013-10-15 11:44:00,
2013-10-15 04:45:00,44.1,38.0,30.09,West,269,0.0,0.0,79,0.00,,---,0.00,VWS V14.00,2013-10-15 11:45:00,
2013-10-15 04:49:00,44.0,37.9,30.09,West,269,0.0,0.0,79,0.00,,---,0.00,VWS V14.00,2013-10-15 11:49:00,
2013-10-15 04:54:00,43.9,37.8,30.09,West,269,0.0,0.0,79,0.00,,---,0.00,VWS V14.00,2013-10-15 11:54:00,
2013-10-15 04:59:00,43.8,37.7,30.09,West,269,0.0,0.0,79,0.00,,---,0.00,VWS V14.00,2013-10-15 11:59:00,
2013-10-15 05:00:00,44.0,37.9,30.09,West,269,0.0,0.0,79,0.00,,---,0.00,VWS V14.00,2013-10-15 12:00:00,
2013-10-15 05:04:00,43.8,37.7,30.09,West,269,0.0,0.0,79,0.00,,---,0.00,VWS V14.00,2013-10-15 12:04:00,
2013-10-15 05:09:00,43.7,37.6,30.09,West,269,0.0,0.0,79,0.00,,---,0.00,VWS V14.00,2013-10-15 12:09:00,
2013-10-15 05:14:00,43.6,37.5,30.09,West,269,0.0,0.0,79,0.00,,---,0.00,VWS V14.00,2013-10-15 12:14:00,
2013-10-15 05:15:00,43.7,37.6,30.09,West,269,0.0,0.0,79,0.00,,---,0.00,VWS V14.00,2013-10-15 12:15:00,
2013-10-15 05:19:00,43.4,37.3,30.09,West,269,0.0,0.0,79,0.00,,---,0.00,VWS V14.00,2013-10-15 12:19:00,
2013-10-15 05:24:00,43.3,37.2,30.09,West,269,0.0,0.0,79,0.00,,---,0.00,VWS V14.00,2013-10-15 12:24:00,
2013-10-15 05:29:00,43.2,37.1,30.09,West,269,0.0,0.0,79,0.00,,---,0.00,VWS V14.00,2013-10-15 12:29:00,
2013-10-15 05:30:00,43.4,37.3,30.09,West,269,0.0,0.0,79,0.00,,---,0.00,VWS V14.00,2013-10-15 12:30:00,
2013-10-15 05:34:00,43.1,37.4,30.09,West,269,0.0,0.0,80,0.00,,---,0.00,VWS V14.00,2013-10-15 12:34:00,
2013-10-15 05:39:00,43.0,36.9,30.09,West,269,0.0,0.0,79,0.00,,---,0.00,VWS V14.00,2013-10-15 12:39:00,
2013-10-15 05:44:00,42.9,36.8,30.09,West,269,0.0,0.0,79,0.00,,---,0.00,VWS V14.00,2013-10-15 12:44:00,
2013-10-15 05:45:00,43.0,37.3,30.09,West,269,0.0,0.0,80,0.00,,---,0.00,VWS V14.00,2013-10-15 12:45:00,
2013-10-15 05:49:00,42.8,37.1,30.09,West,269,0.0,0.0,80,0.00,,---,0.00,VWS V14.00,2013-10-15 12:49:00,
2013-10-15 05:54:00,42.7,37.0,30.10,West,269,0.0,0.0,80,0.00,,---,0.00,VWS V14.00,2013-10-15 12:54:00,
2013-10-15 05:59:00,42.5,36.8,30.10,West,269,0.0,0.0,80,0.00,,---,0.00,VWS V14.00,2013-10-15 12:59:00,
2013-10-15 06:00:00,42.7,37.0,30.09,West,269,0.0,0.0,80,0.00,,---,0.00,VWS V14.00,2013-10-15 13:00:00,
2013-10-15 06:04:00,42.4,36.7,30.10,West,269,0.0,0.0,80,0.00,,---,0.00,VWS V14.00,2013-10-15 13:04:00,
2013-10-15 06:09:00,42.3,36.6,30.10,West,269,0.0,0.0,80,0.00,,---,0.00,VWS V14.00,2013-10-15 13:09:00,
2013-10-15 06:14:00,42.1,36.4,30.10,West,269,0.0,0.0,80,0.00,,---,0.00,VWS V14.00,2013-10-15 13:14:00,
2013-10-15 06:15:00,42.4,36.7,30.10,West,269,0.0,0.0,80,0.00,,---,0.00,VWS V14.00,2013-10-15 13:15:00,
2013-10-15 06:19:00,41.9,36.2,30.10,West,269,0.0,0.0,80,0.00,,---,0.00,VWS V14.00,2013-10-15 13:19:00,
2013-10-15 06:24:00,41.8,36.1,30.10,West,269,0.0,0.0,80,0.00,,---,0.00,VWS V14.00,2013-10-15 13:24:00,
2013-10-15 06:29:00,41.8,36.1,30.10,West,269,0.0,0.0,80,0.00,,---,0.00,VWS V14.00,2013-10-15 13:29:00,
2013-10-15 06:30:00,41.9,36.2,30.10,West,269,0.0,0.0,80,0.00,,---,0.00,VWS V14.00,2013-10-15 13:30:00,
2013-10-15 06:34:00,41.7,36.3,30.10,West,269,0.0,0.0,81,0.00,,---,0.00,VWS V14.00,2013-10-15 13:34:00,
2013-10-15 06:39:00,41.5,36.1,30.10,West,269,0.0,0.0,81,0.00,,---,0.00,VWS V14.00,2013-10-15 13:39:00,
2013-10-15 06:44:00,41.5,36.1,30.10,West,269,0.0,1.0,81,0.00,,---,0.00,VWS V14.00,2013-10-15 13:44:00,
2013-10-15 06:45:00,41.6,36.2,30.10,West,269,0.0,0.0,81,0.00,,---,0.00,VWS V14.00,2013-10-15 13:45:00,
2013-10-15 06:49:00,41.3,35.9,30.10,West,269,0.0,1.0,81,0.00,,---,0.00,VWS V14.00,2013-10-15 13:49:00,
2013-10-15 06:54:00,41.2,36.1,30.10,West,269,0.0,0.0,82,0.00,,---,0.00,VWS V14.00,2013-10-15 13:54:00,
2013-10-15 06:59:00,41.1,36.0,30.10,West,269,0.0,0.0,82,0.00,,---,0.00,VWS V14.00,2013-10-15 13:59:00,
2013-10-15 07:00:00,41.3,35.9,30.10,West,269,0.0,1.0,81,0.00,,---,0.00,VWS V14.00,2013-10-15 14:00:00,
2013-10-15 07:04:00,41.1,36.0,30.10,West,269,0.0,0.0,82,0.00,,---,0.00,VWS V14.00,2013-10-15 14:04:00,
2013-10-15 07:09:00,41.0,37.1,30.10,West,269,0.0,0.0,86,0.00,,---,0.00,VWS V14.00,2013-10-15 14:09:00,
2013-10-15 07:14:00,40.9,35.8,30.10,West,269,0.0,0.0,82,0.00,,---,0.00,VWS V14.00,2013-10-15 14:14:00,
2013-10-15 07:15:00,41.0,35.9,30.10,West,269,0.0,0.0,82,0.00,,---,0.00,VWS V14.00,2013-10-15 14:15:00,
2013-10-15 07:19:00,40.8,35.7,30.11,West,269,0.0,0.0,82,0.00,,---,0.00,VWS V14.00,2013-10-15 14:19:00,
2013-10-15 07:24:00,40.7,35.6,30.11,West,269,0.0,0.0,82,0.00,,---,0.00,VWS V14.00,2013-10-15 14:24:00,
2013-10-15 07:29:00,40.7,35.6,30.11,West,269,0.0,0.0,82,0.00,,---,0.00,VWS V14.00,2013-10-15 14:29:00,
2013-10-15 07:30:00,40.8,35.7,30.11,West,269,0.0,0.0,82,0.00,,---,0.00,VWS V14.00,2013-10-15 14:30:00,
2013-10-15 07:34:00,40.6,35.5,30.11,West,269,0.0,0.0,82,0.00,,---,0.00,VWS V14.00,2013-10-15 14:34:00,
2013-10-15 07:39:00,40.6,35.5,30.11,West,269,0.0,0.0,82,0.00,,---,0.00,VWS V14.00,2013-10-15 14:39:00,
2013-10-15 07:44:00,40.5,35.5,30.11,West,269,0.0,0.0,82,0.00,,---,0.00,VWS V14.00,2013-10-15 14:44:00,
2013-10-15 07:45:00,40.6,35.5,30.11,West,269,0.0,0.0,82,0.00,,---,0.00,VWS V14.00,2013-10-15 14:45:00,
2013-10-15 07:49:00,40.5,35.5,30.11,West,269,0.0,0.0,82,0.00,,---,0.00,VWS V14.00,2013-10-15 14:49:00,
2013-10-15 07:54:00,40.5,35.5,30.11,West,269,0.0,0.0,82,0.00,,---,0.00,VWS V14.00,2013-10-15 14:54:00,
2013-10-15 07:59:00,40.6,35.8,30.11,West,269,0.0,0.0,83,0.00,,---,0.00,VWS V14.00,2013-10-15 14:59:00,
2013-10-15 08:00:00,40.5,35.5,30.11,West,269,0.0,0.0,82,0.00,,---,0.00,VWS V14.00,2013-10-15 15:00:00,
2013-10-15 08:04:00,40.9,36.1,30.12,West,269,0.0,0.0,83,0.00,,---,0.00,VWS V14.00,2013-10-15 15:04:00,
2013-10-15 08:09:00,41.3,36.8,30.12,West,269,0.0,0.0,84,0.00,,---,0.00,VWS V14.00,2013-10-15 15:09:00,
2013-10-15 08:14:00,41.9,37.7,30.12,West,269,0.0,0.0,85,0.00,,---,0.00,VWS V14.00,2013-10-15 15:14:00,
2013-10-15 08:15:00,41.2,36.4,30.12,West,269,0.0,0.0,83,0.00,,---,0.00,VWS V14.00,2013-10-15 15:15:00,
2013-10-15 08:19:00,42.7,38.5,30.12,West,269,0.0,0.0,85,0.00,,---,0.00,VWS V14.00,2013-10-15 15:19:00,
2013-10-15 08:24:00,43.6,39.7,30.12,West,269,0.0,0.0,86,0.00,,---,0.00,VWS V14.00,2013-10-15 15:24:00,
2013-10-15 08:29:00,44.6,40.7,30.12,West,269,0.0,0.0,86,0.00,,---,0.00,VWS V14.00,2013-10-15 15:29:00,
2013-10-15 08:30:00,43.3,39.4,30.12,West,269,0.0,0.0,86,0.00,,---,0.00,VWS V14.00,2013-10-15 15:30:00,
2013-10-15 08:34:00,45.6,42.0,30.12,West,269,0.0,0.0,87,0.00,,---,0.00,VWS V14.00,2013-10-15 15:34:00,
2013-10-15 08:39:00,46.5,42.5,30.12,West,269,0.0,0.0,86,0.00,,---,0.00,VWS V14.00,2013-10-15 15:39:00,
2013-10-15 08:44:00,47.3,43.3,30.13,West,269,0.0,0.0,86,0.00,,---,0.00,VWS V14.00,2013-10-15 15:44:00,
2013-10-15 08:45:00,46.1,42.2,30.12,West,269,0.0,0.0,86,0.00,,---,0.00,VWS V14.00,2013-10-15 15:45:00,
2013-10-15 08:49:00,48.2,43.9,30.12,West,269,0.0,0.0,85,0.00,,---,0.00,VWS V14.00,2013-10-15 15:49:00,
2013-10-15 08:54:00,49.1,44.5,30.12,West,269,0.0,0.0,84,0.00,,---,0.00,VWS V14.00,2013-10-15 15:54:00,
2013-10-15 08:59:00,50.1,44.8,30.12,West,269,0.0,0.0,82,0.00,,---,0.00,VWS V14.00,2013-10-15 15:59:00,
2013-10-15 09:00:00,48.8,44.2,30.12,West,269,0.0,1.0,84,0.00,,---,0.00,VWS V14.00,2013-10-15 16:00:00,
2013-10-15 09:04:00,51.2,44.9,30.12,West,269,2.0,2.0,79,0.00,,---,0.00,VWS V14.00,2013-10-15 16:04:00,
2013-10-15 09:09:00,52.5,44.5,30.12,West,269,0.0,3.0,74,0.00,,---,0.00,VWS V14.00,2013-10-15 16:09:00,
2013-10-15 09:14:00,53.4,43.9,30.12,West,269,0.0,3.0,70,0.00,,---,0.00,VWS V14.00,2013-10-15 16:14:00,
2013-10-15 09:15:00,52.0,44.7,30.12,West,269,0.0,4.0,76,0.00,,---,0.00,VWS V14.00,2013-10-15 16:15:00,
2013-10-15 09:19:00,54.4,43.7,30.12,West,269,0.0,3.0,67,0.00,,---,0.00,VWS V14.00,2013-10-15 16:19:00,
2013-10-15 09:24:00,55.4,43.8,30.12,West,269,0.0,2.0,65,0.00,,---,0.00,VWS V14.00,2013-10-15 16:24:00,
2013-10-15 09:29:00,56.0,42.8,30.12,West,269,0.0,2.0,61,0.00,,---,0.00,VWS V14.00,2013-10-15 16:29:00,
2013-10-15 09:30:00,55.0,43.9,30.12,West,269,1.0,3.0,66,0.00,,---,0.00,VWS V14.00,2013-10-15 16:30:00,
2013-10-15 09:34:00,56.8,42.6,30.12,West,269,0.0,2.0,59,0.00,,---,0.00,VWS V14.00,2013-10-15 16:34:00,
2013-10-15 09:39:00,57.5,43.3,30.12,West,269,2.0,3.0,59,0.00,,---,0.00,VWS V14.00,2013-10-15 16:39:00,
2013-10-15 09:44:00,58.3,43.2,30.12,West,269,0.0,3.0,57,0.00,,---,0.00,VWS V14.00,2013-10-15 16:44:00,
2013-10-15 09:45:00,57.1,43.4,30.12,West,269,0.0,2.0,60,0.00,,---,0.00,VWS V14.00,2013-10-15 16:45:00,
2013-10-15 09:49:00,59.0,42.9,30.12,West,269,0.0,3.0,55,0.00,,---,0.00,VWS V14.00,2013-10-15 16:49:00,
2013-10-15 09:54:00,59.7,43.0,30.12,West,269,0.0,1.0,54,0.00,,---,0.00,VWS V14.00,2013-10-15 16:54:00,
2013-10-15 09:59:00,60.7,43.0,30.12,West,269,0.0,1.0,52,0.00,,---,0.00,VWS V14.00,2013-10-15 16:59:00,
2013-10-15 10:00:00,59.5,42.9,30.12,West,269,0.0,3.0,54,0.00,,---,0.00,VWS V14.00,2013-10-15 17:00:00,
2013-10-15 10:04:00,61.7,42.9,30.12,West,269,0.0,2.0,50,0.00,,---,0.00,VWS V14.00,2013-10-15 17:04:00,
2013-10-15 10:09:00,62.7,43.3,30.12,West,269,0.0,0.0,49,0.00,,---,0.00,VWS V14.00,2013-10-15 17:09:00,
2013-10-15 10:14:00,63.4,42.8,30.12,West,269,0.0,3.0,47,0.00,,---,0.00,VWS V14.00,2013-10-15 17:14:00,
2013-10-15 10:15:00,62.4,43.5,30.12,West,269,0.0,2.0,50,0.00,,---,0.00,VWS V14.00,2013-10-15 17:15:00,
2013-10-15 10:19:00,63.9,42.7,30.12,West,269,0.0,3.0,46,0.00,,---,0.00,VWS V14.00,2013-10-15 17:19:00,
2013-10-15 10:24:00,64.5,43.3,30.12,West,269,0.0,0.0,46,0.00,,---,0.00,VWS V14.00,2013-10-15 17:24:00,
2013-10-15 10:29:00,65.2,43.3,30.12,West,269,1.0,1.0,45,0.00,,---,0.00,VWS V14.00,2013-10-15 17:29:00,
2013-10-15 10:30:00,64.2,43.0,30.12,West,269,0.0,3.0,46,0.00,,---,0.00,VWS V14.00,2013-10-15 17:30:00,
2013-10-15 10:34:00,65.6,43.1,30.11,West,269,0.0,1.0,44,0.00,,---,0.00,VWS V14.00,2013-10-15 17:34:00,
2013-10-15 10:39:00,65.9,42.8,30.11,West,269,0.0,1.0,43,0.00,,---,0.00,VWS V14.00,2013-10-15 17:39:00,
2013-10-15 10:44:00,66.4,42.6,30.11,West,269,0.0,1.0,42,0.00,,---,0.00,VWS V14.00,2013-10-15 17:44:00,
2013-10-15 10:45:00,65.8,43.3,30.11,West,269,0.0,1.0,44,0.00,,---,0.00,VWS V14.00,2013-10-15 17:45:00,
2013-10-15 10:49:00,67.0,42.5,30.11,West,269,0.0,1.0,41,0.00,,---,0.00,VWS V14.00,2013-10-15 17:49:00,
2013-10-15 10:54:00,67.6,42.4,30.11,West,269,0.0,0.0,40,0.00,,---,0.00,VWS V14.00,2013-10-15 17:54:00,
2013-10-15 10:59:00,68.3,43.1,30.11,West,269,0.0,1.0,40,0.00,,---,0.00,VWS V14.00,2013-10-15 17:59:00,
2013-10-15 11:00:00,67.4,42.3,30.11,West,269,0.0,1.0,40,0.00,,---,0.00,VWS V14.00,2013-10-15 18:00:00,
2013-10-15 11:04:00,69.1,43.1,30.10,West,269,0.0,2.0,39,0.00,,---,0.00,VWS V14.00,2013-10-15 18:04:00,
2013-10-15 11:09:00,70.1,43.3,30.10,West,269,0.0,1.0,38,0.00,,---,0.00,VWS V14.00,2013-10-15 18:09:00,
2013-10-15 11:14:00,70.6,41.7,30.10,West,269,0.0,1.0,35,0.00,,---,0.00,VWS V14.00,2013-10-15 18:14:00,
2013-10-15 11:15:00,69.8,43.1,30.10,West,269,0.0,2.0,38,0.00,,---,0.00,VWS V14.00,2013-10-15 18:15:00,
2013-10-15 11:19:00,71.2,42.2,30.10,West,269,2.0,4.0,35,0.00,,---,0.00,VWS V14.00,2013-10-15 18:19:00,
2013-10-15 11:24:00,71.7,42.6,30.10,West,269,0.0,0.0,35,0.00,,---,0.00,VWS V14.00,2013-10-15 18:24:00,
2013-10-15 11:29:00,72.4,41.7,30.10,West,269,0.0,3.0,33,0.00,,---,0.00,VWS V14.00,2013-10-15 18:29:00,
2013-10-15 11:30:00,71.5,42.4,30.10,West,269,0.0,4.0,35,0.00,,---,0.00,VWS V14.00,2013-10-15 18:30:00,
2013-10-15 11:34:00,73.7,41.2,30.10,West,269,0.0,3.0,31,0.00,,---,0.00,VWS V14.00,2013-10-15 18:34:00,
2013-10-15 11:39:00,73.0,42.2,30.10,West,269,0.0,1.0,33,0.00,,---,0.00,VWS V14.00,2013-10-15 18:39:00,
2013-10-15 11:44:00,73.3,40.9,30.10,West,269,0.0,1.0,31,0.00,,---,0.00,VWS V14.00,2013-10-15 18:44:00,
2013-10-15 11:45:00,73.1,41.5,30.10,West,269,0.0,3.0,32,0.00,,---,0.00,VWS V14.00,2013-10-15 18:45:00,
2013-10-15 11:49:00,74.1,40.7,30.09,West,269,0.0,4.0,30,0.00,,---,0.00,VWS V14.00,2013-10-15 18:49:00,
2013-10-15 11:54:00,74.7,39.5,30.09,West,269,0.0,1.0,28,0.00,,---,0.00,VWS V14.00,2013-10-15 18:54:00,
2013-10-15 11:59:00,76.6,41.1,30.09,West,269,0.0,1.0,28,0.00,,---,0.00,VWS V14.00,2013-10-15 18:59:00,
2013-10-15 12:00:00,75.0,41.5,30.09,West,269,0.0,4.0,30,0.00,,---,0.00,VWS V14.00,2013-10-15 19:00:00,
2013-10-15 12:04:00,77.7,41.1,30.09,West,269,1.0,3.0,27,0.00,,---,0.00,VWS V14.00,2013-10-15 19:04:00,
2013-10-15 12:09:00,79.8,39.8,30.09,West,269,0.0,0.0,24,0.00,,---,0.00,VWS V14.00,2013-10-15 19:09:00,
2013-10-15 12:14:00,80.1,40.1,30.09,West,269,0.0,1.0,24,0.00,,---,0.00,VWS V14.00,2013-10-15 19:14:00,
2013-10-15 12:15:00,79.4,40.5,30.09,West,269,0.0,3.0,25,0.00,,---,0.00,VWS V14.00,2013-10-15 19:15:00,
2013-10-15 12:19:00,80.1,40.1,30.08,West,269,0.0,1.0,24,0.00,,---,0.00,VWS V14.00,2013-10-15 19:19:00,
2013-10-15 12:24:00,82.0,40.6,30.08,West,269,1.0,1.0,23,0.00,,---,0.00,VWS V14.00,2013-10-15 19:24:00,
2013-10-15 12:29:00,83.3,40.5,30.08,West,269,0.0,4.0,22,0.00,,---,0.00,VWS V14.00,2013-10-15 19:29:00,
2013-10-15 12:30:00,81.5,41.3,30.08,West,269,0.0,1.0,24,0.00,,---,0.00,VWS V14.00,2013-10-15 19:30:00,
2013-10-15 12:34:00,83.4,39.4,30.08,West,269,0.0,4.0,21,0.00,,---,0.00,VWS V14.00,2013-10-15 19:34:00,
2013-10-15 12:39:00,81.8,39.3,30.08,West,269,0.0,1.0,22,0.00,,---,0.00,VWS V14.00,2013-10-15 19:39:00,
2013-10-15 12:44:00,83.4,38.2,30.07,West,269,2.0,3.0,20,0.00,,---,0.00,VWS V14.00,2013-10-15 19:44:00,
2013-10-15 12:45:00,81.8,38.1,30.08,West,269,0.0,4.0,21,0.00,,---,0.00,VWS V14.00,2013-10-15 19:45:00,
2013-10-15 12:49:00,83.2,38.0,30.07,West,269,0.0,4.0,20,0.00,,---,0.00,VWS V14.00,2013-10-15 19:49:00,
2013-10-15 12:54:00,80.2,35.5,30.07,West,269,0.0,5.0,20,0.00,,---,0.00,VWS V14.00,2013-10-15 19:54:00,
2013-10-15 12:59:00,80.3,36.8,30.07,West,269,3.0,5.0,21,0.00,,---,0.00,VWS V14.00,2013-10-15 19:59:00,
2013-10-15 13:00:00,81.2,36.4,30.07,West,269,5.0,5.0,20,0.00,,---,0.00,VWS V14.00,2013-10-15 20:00:00,
2013-10-15 13:04:00,85.0,35.3,30.06,West,269,0.0,5.0,17,0.00,,---,0.00,VWS V14.00,2013-10-15 20:04:00,
2013-10-15 13:09:00,84.8,36.6,30.06,West,269,1.0,1.0,18,0.00,,---,0.00,VWS V14.00,2013-10-15 20:09:00,
2013-10-15 13:14:00,85.7,35.9,30.06,West,269,1.0,4.0,17,0.00,,---,0.00,VWS V14.00,2013-10-15 20:14:00,
2013-10-15 13:15:00,84.7,36.5,30.06,West,269,0.0,5.0,18,0.00,,---,0.00,VWS V14.00,2013-10-15 20:15:00,
2013-10-15 13:19:00,85.6,35.8,30.05,West,269,4.0,7.0,17,0.00,,---,0.00,VWS V14.00,2013-10-15 20:19:00,
2013-10-15 13:24:00,85.8,34.5,30.05,West,269,1.0,5.0,16,0.00,,---,0.00,VWS V14.00,2013-10-15 20:24:00,
2013-10-15 13:29:00,85.8,36.0,30.05,West,269,3.0,5.0,17,0.00,,---,0.00,VWS V14.00,2013-10-15 20:29:00,
2013-10-15 13:30:00,86.0,34.6,30.06,West,269,4.0,8.0,16,0.00,,---,0.00,VWS V14.00,2013-10-15 20:30:00,
2013-10-15 13:34:00,86.4,33.3,30.05,West,269,0.0,5.0,15,0.00,,---,0.00,VWS V14.00,2013-10-15 20:34:00,
2013-10-15 13:39:00,84.8,33.7,30.05,West,269,0.0,1.0,16,0.00,,---,0.00,VWS V14.00,2013-10-15 20:39:00,
2013-10-15 13:44:00,85.0,33.8,30.05,West,269,0.0,6.0,16,0.00,,---,0.00,VWS V14.00,2013-10-15 20:44:00,
2013-10-15 13:45:00,84.7,35.1,30.05,West,269,0.0,5.0,17,0.00,,---,0.00,VWS V14.00,2013-10-15 20:45:00,
2013-10-15 13:49:00,87.3,32.3,30.04,West,269,0.0,6.0,14,0.00,,---,0.00,VWS V14.00,2013-10-15 20:49:00,
2013-10-15 13:54:00,85.3,34.1,30.04,West,269,0.0,1.0,16,0.00,,---,0.00,VWS V14.00,2013-10-15 20:54:00,
2013-10-15 13:59:00,86.6,33.5,30.04,West,269,1.0,2.0,15,0.00,,---,0.00,VWS V14.00,2013-10-15 20:59:00,
2013-10-15 14:00:00,86.4,31.6,30.04,West,269,0.0,6.0,14,0.00,,---,0.00,VWS V14.00,2013-10-15 21:00:00,
2013-10-15 14:04:00,86.1,33.1,30.03,West,269,0.0,3.0,15,0.00,,---,0.00,VWS V14.00,2013-10-15 21:04:00,
2013-10-15 14:09:00,87.3,34.0,30.03,West,269,3.0,4.0,15,0.00,,---,0.00,VWS V14.00,2013-10-15 21:09:00,
2013-10-15 14:14:00,88.3,33.1,30.03,West,269,0.0,5.0,14,0.00,,---,0.00,VWS V14.00,2013-10-15 21:14:00,
2013-10-15 14:15:00,86.5,35.0,30.03,West,269,2.0,5.0,16,0.00,,---,0.00,VWS V14.00,2013-10-15 21:15:00,
2013-10-15 14:19:00,88.9,33.6,30.03,West,269,0.0,5.0,14,0.00,,---,0.00,VWS V14.00,2013-10-15 21:19:00,
2013-10-15 14:24:00,87.4,32.4,30.03,West,269,0.0,2.0,14,0.00,,---,0.00,VWS V14.00,2013-10-15 21:24:00,
2013-10-15 14:29:00,89.0,35.4,30.03,West,269,4.0,5.0,15,0.00,,---,0.00,VWS V14.00,2013-10-15 21:29:00,
2013-10-15 14:30:00,88.2,31.2,30.03,West,269,2.0,5.0,13,0.00,,---,0.00,VWS V14.00,2013-10-15 21:30:00,
2013-10-15 14:33:00,88.4,34.9,30.03,West,269,0.0,5.0,15,0.00,,---,0.00,VWS V14.00,2013-10-15 21:33:00,
2013-10-15 14:38:00,88.6,33.4,30.02,West,269,7.0,7.0,14,0.00,,---,0.00,VWS V14.00,2013-10-15 21:38:00,
2013-10-15 14:43:00,88.4,34.9,30.02,West,269,1.0,8.0,15,0.00,,---,0.00,VWS V14.00,2013-10-15 21:43:00,
2013-10-15 14:45:00,88.6,33.4,30.02,West,269,2.0,5.0,14,0.00,,---,0.00,VWS V14.00,2013-10-15 21:45:00,
2013-10-15 14:48:00,89.2,32.0,30.02,West,269,0.0,8.0,13,0.00,,---,0.00,VWS V14.00,2013-10-15 21:48:00,
2013-10-15 14:53:00,88.3,34.8,30.02,West,269,0.0,0.0,15,0.00,,---,0.00,VWS V14.00,2013-10-15 21:53:00,
2013-10-15 14:58:00,89.5,34.1,30.02,West,269,1.0,6.0,14,0.00,,---,0.00,VWS V14.00,2013-10-15 21:58:00,
2013-10-15 15:00:00,88.3,33.1,30.02,West,269,0.0,8.0,14,0.00,,---,0.00,VWS V14.00,2013-10-15 22:00:00,
2013-10-15 15:03:00,89.3,33.9,30.01,West,269,0.0,6.0,14,0.00,,---,0.00,VWS V14.00,2013-10-15 22:03:00,
2013-10-15 15:08:00,89.7,32.4,30.01,West,269,1.0,2.0,13,0.00,,---,0.00,VWS V14.00,2013-10-15 22:08:00,
2013-10-15 15:13:00,90.6,34.9,30.01,West,269,0.0,5.0,14,0.00,,---,0.00,VWS V14.00,2013-10-15 22:13:00,
2013-10-15 15:15:00,90.1,32.7,30.01,West,269,0.0,7.0,13,0.00,,---,0.00,VWS V14.00,2013-10-15 22:15:00,
2013-10-15 15:18:00,89.7,32.4,30.01,West,269,4.0,5.0,13,0.00,,---,0.00,VWS V14.00,2013-10-15 22:18:00,
2013-10-15 15:23:00,89.2,32.0,30.01,West,269,0.0,2.0,13,0.00,,---,0.00,VWS V14.00,2013-10-15 22:23:00,
2013-10-15 15:28:00,90.1,34.5,30.01,West,269,0.0,5.0,14,0.00,,---,0.00,VWS V14.00,2013-10-15 22:28:00,
2013-10-15 15:30:00,89.4,32.1,30.01,West,269,0.0,7.0,13,0.00,,---,0.00,VWS V14.00,2013-10-15 22:30:00,
2013-10-15 15:33:00,90.7,33.2,30.01,West,269,0.0,5.0,13,0.00,,---,0.00,VWS V14.00,2013-10-15 22:33:00,
2013-10-15 15:38:00,89.9,32.5,30.01,West,269,2.0,7.0,13,0.00,,---,0.00,VWS V14.00,2013-10-15 22:38:00,
2013-10-15 15:43:00,90.3,32.8,30.01,West,269,1.0,7.0,13,0.00,,---,0.00,VWS V14.00,2013-10-15 22:43:00,
2013-10-15 15:45:00,90.1,32.7,30.01,West,269,3.0,6.0,13,0.00,,---,0.00,VWS V14.00,2013-10-15 22:45:00,
2013-10-15 15:48:00,88.8,31.7,30.01,West,269,0.0,7.0,13,0.00,,---,0.00,VWS V14.00,2013-10-15 22:48:00,
2013-10-15 15:53:00,88.1,33.0,30.01,West,269,0.0,3.0,14,0.00,,---,0.00,VWS V14.00,2013-10-15 22:53:00,
2013-10-15 15:58:00,87.3,30.5,30.01,West,269,1.0,4.0,13,0.00,,---,0.00,VWS V14.00,2013-10-15 22:58:00,
2013-10-15 16:00:00,87.8,30.9,30.01,West,269,1.0,7.0,13,0.00,,---,0.00,VWS V14.00,2013-10-15 23:00:00,
2013-10-15 16:03:00,86.8,35.3,30.01,West,259,0.0,11.0,16,0.00,,---,0.00,VWS V14.00,2013-10-15 23:03:00,
2013-10-15 16:08:00,85.6,34.3,30.00,West,262,8.0,8.0,16,0.00,,---,0.00,VWS V14.00,2013-10-15 23:08:00,
2013-10-15 16:13:00,84.6,35.0,30.01,WSW,243,7.0,13.0,17,0.00,,---,0.00,VWS V14.00,2013-10-15 23:13:00,
2013-10-15 16:15:00,85.8,34.5,30.01,West,261,5.0,11.0,16,0.00,,---,0.00,VWS V14.00,2013-10-15 23:15:00,
2013-10-15 16:18:00,83.9,33.0,30.01,WSW,242,6.0,13.0,16,0.00,,---,0.00,VWS V14.00,2013-10-15 23:18:00,
2013-10-15 16:23:00,83.2,33.9,30.01,WSW,242,6.0,12.0,17,0.00,,---,0.00,VWS V14.00,2013-10-15 23:23:00,
2013-10-15 16:28:00,82.9,33.7,30.01,WSW,240,5.0,12.0,17,0.00,,---,0.00,VWS V14.00,2013-10-15 23:28:00,
2013-10-15 16:30:00,83.3,34.0,30.01,WSW,237,6.0,13.0,17,0.00,,---,0.00,VWS V14.00,2013-10-15 23:30:00,
2013-10-15 16:33:00,82.7,33.5,30.01,WSW,238,0.0,12.0,17,0.00,,---,0.00,VWS V14.00,2013-10-15 23:33:00,
2013-10-15 16:38:00,82.6,34.8,30.01,WSW,239,3.0,3.0,18,0.00,,---,0.00,VWS V14.00,2013-10-15 23:38:00,
2013-10-15 16:43:00,82.8,33.6,30.01,West,264,6.0,10.0,17,0.00,,---,0.00,VWS V14.00,2013-10-15 23:43:00,
2013-10-15 16:45:00,82.6,33.4,30.01,WSW,239,0.0,12.0,17,0.00,,---,0.00,VWS V14.00,2013-10-15 23:45:00,
2013-10-15 16:48:00,82.9,35.1,30.01,West,266,6.0,10.0,18,0.00,,---,0.00,VWS V14.00,2013-10-15 23:48:00,
2013-10-15 16:53:00,82.8,35.0,30.01,West,266,4.0,6.0,18,0.00,,---,0.00,VWS V14.00,2013-10-15 23:53:00,
2013-10-15 16:58:00,82.7,34.9,30.01,West,259,9.0,9.0,18,0.00,,---,0.00,VWS V14.00,2013-10-15 23:58:00,
2013-10-15 17:00:00,82.9,35.1,30.01,West,266,6.0,10.0,18,0.00,,---,0.00,VWS V14.00,2013-10-16 00:00:00,
2013-10-15 17:03:00,82.4,36.0,30.01,West,259,6.0,9.0,19,0.00,,---,0.00,VWS V14.00,2013-10-16 00:03:00,
2013-10-15 17:08:00,82.0,34.4,30.02,West,259,7.0,8.0,18,0.00,,---,0.00,VWS V14.00,2013-10-16 00:08:00,
2013-10-15 17:13:00,81.5,34.0,30.02,West,262,2.0,8.0,18,0.00,,---,0.00,VWS V14.00,2013-10-16 00:13:00,
2013-10-15 17:15:00,82.1,35.8,30.02,West,259,4.0,9.0,19,0.00,,---,0.00,VWS V14.00,2013-10-16 00:15:00,
2013-10-15 17:18:00,81.3,33.8,30.02,West,261,4.0,8.0,18,0.00,,---,0.00,VWS V14.00,2013-10-16 00:18:00,
2013-10-15 17:23:00,81.0,33.5,30.02,West,260,4.0,6.0,18,0.00,,---,0.00,VWS V14.00,2013-10-16 00:23:00,
2013-10-15 17:28:00,80.5,34.5,30.02,West,259,0.0,7.0,19,0.00,,---,0.00,VWS V14.00,2013-10-16 00:28:00,
2013-10-15 17:30:00,81.0,33.5,30.02,West,259,0.0,8.0,18,0.00,,---,0.00,VWS V14.00,2013-10-16 00:30:00,
2013-10-15 17:33:00,80.2,32.9,30.02,West,259,3.0,7.0,18,0.00,,---,0.00,VWS V14.00,2013-10-16 00:33:00,
2013-10-15 17:38:00,79.8,33.9,30.02,West,259,3.0,3.0,19,0.00,,---,0.00,VWS V14.00,2013-10-16 00:38:00,
2013-10-15 17:43:00,79.5,33.7,30.02,West,259,5.0,7.0,19,0.00,,---,0.00,VWS V14.00,2013-10-16 00:43:00,
2013-10-15 17:45:00,79.9,34.0,30.02,West,259,0.0,7.0,19,0.00,,---,0.00,VWS V14.00,2013-10-16 00:45:00,
2013-10-15 17:48:00,78.7,33.0,30.02,West,259,0.0,7.0,19,0.00,,---,0.00,VWS V14.00,2013-10-16 00:48:00,
2013-10-15 17:53:00,78.2,33.9,30.02,West,259,0.0,2.0,20,0.00,,---,0.00,VWS V14.00,2013-10-16 00:53:00,
2013-10-15 17:58:00,77.8,33.6,30.02,West,259,0.0,4.0,20,0.00,,---,0.00,VWS V14.00,2013-10-16 00:58:00,
2013-10-15 18:00:00,78.3,34.0,30.02,West,259,1.0,7.0,20,0.00,,---,0.00,VWS V14.00,2013-10-16 01:00:00,
2013-10-15 18:03:00,77.2,34.3,30.02,West,259,0.0,4.0,21,0.00,,---,0.00,VWS V14.00,2013-10-16 01:03:00,
2013-10-15 18:08:00,76.5,33.7,30.02,West,259,2.0,6.0,21,0.00,,---,0.00,VWS V14.00,2013-10-16 01:08:00,
2013-10-15 18:13:00,75.6,33.0,30.02,West,259,4.0,6.0,21,0.00,,---,0.00,VWS V14.00,2013-10-16 01:13:00,
2013-10-15 18:15:00,76.7,33.9,30.02,West,259,0.0,4.0,21,0.00,,---,0.00,VWS V14.00,2013-10-16 01:15:00,
2013-10-15 18:18:00,74.9,33.5,30.02,West,259,0.0,6.0,22,0.00,,---,0.00,VWS V14.00,2013-10-16 01:18:00,
2013-10-15 18:23:00,74.4,34.2,30.02,West,259,1.0,1.0,23,0.00,,---,0.00,VWS V14.00,2013-10-16 01:23:00,
2013-10-15 18:28:00,73.9,33.8,30.02,West,259,0.0,1.0,23,0.00,,---,0.00,VWS V14.00,2013-10-16 01:28:00,
2013-10-15 18:30:00,74.5,34.3,30.02,West,259,0.0,6.0,23,0.00,,---,0.00,VWS V14.00,2013-10-16 01:30:00,
2013-10-15 18:33:00,73.4,33.4,30.02,West,259,0.0,1.0,23,0.00,,---,0.00,VWS V14.00,2013-10-16 01:33:00,
2013-10-15 18:38:00,72.9,33.0,30.03,West,259,0.0,0.0,23,0.00,,---,0.00,VWS V14.00,2013-10-16 01:38:00,
2013-10-15 18:43:00,72.1,33.3,30.03,West,259,0.0,0.0,24,0.00,,---,0.00,VWS V14.00,2013-10-16 01:43:00,
2013-10-15 18:45:00,73.1,33.1,30.03,West,259,0.0,1.0,23,0.00,,---,0.00,VWS V14.00,2013-10-16 01:45:00,
2013-10-15 18:48:00,71.3,32.7,30.03,West,259,0.0,2.0,24,0.00,,---,0.00,VWS V14.00,2013-10-16 01:48:00,
2013-10-15 18:53:00,70.5,33.0,30.03,West,259,0.0,0.0,25,0.00,,---,0.00,VWS V14.00,2013-10-16 01:53:00,
2013-10-15 18:58:00,69.9,32.5,30.03,West,259,0.0,1.0,25,0.00,,---,0.00,VWS V14.00,2013-10-16 01:58:00,
2013-10-15 19:00:00,70.6,33.1,30.03,West,259,0.0,2.0,25,0.00,,---,0.00,VWS V14.00,2013-10-16 02:00:00,
2013-10-15 19:03:00,69.3,33.0,30.03,West,259,0.0,1.0,26,0.00,,---,0.00,VWS V14.00,2013-10-16 02:03:00,
2013-10-15 19:08:00,68.7,32.5,30.03,West,259,1.0,1.0,26,0.00,,---,0.00,VWS V14.00,2013-10-16 02:08:00,
2013-10-15 19:13:00,68.1,32.9,30.03,West,259,0.0,1.0,27,0.00,,---,0.00,VWS V14.00,2013-10-16 02:13:00,
2013-10-15 19:15:00,68.8,32.5,30.03,West,259,0.0,1.0,26,0.00,,---,0.00,VWS V14.00,2013-10-16 02:15:00,
2013-10-15 19:18:00,67.7,32.5,30.03,West,259,0.0,1.0,27,0.00,,---,0.00,VWS V14.00,2013-10-16 02:18:00,
2013-10-15 19:23:00,67.3,32.2,30.03,West,259,0.0,0.0,27,0.00,,---,0.00,VWS V14.00,2013-10-16 02:23:00,
2013-10-15 19:28:00,67.0,32.0,30.03,West,259,0.0,0.0,27,0.00,,---,0.00,VWS V14.00,2013-10-16 02:28:00,
2013-10-15 19:30:00,67.4,32.3,30.03,West,259,0.0,1.0,27,0.00,,---,0.00,VWS V14.00,2013-10-16 02:30:00,
2013-10-15 19:33:00,66.7,32.6,30.03,West,259,0.0,0.0,28,0.00,,---,0.00,VWS V14.00,2013-10-16 02:33:00,
2013-10-15 19:38:00,66.5,32.4,30.03,West,259,0.0,0.0,28,0.00,,---,0.00,VWS V14.00,2013-10-16 02:38:00,
2013-10-15 19:43:00,66.1,32.1,30.03,West,259,0.0,1.0,28,0.00,,---,0.00,VWS V14.00,2013-10-16 02:43:00,
2013-10-15 19:45:00,66.5,32.4,30.03,West,259,0.0,1.0,28,0.00,,---,0.00,VWS V14.00,2013-10-16 02:45:00,
2013-10-15 19:48:00,65.8,32.7,30.03,West,259,0.0,1.0,29,0.00,,---,0.00,VWS V14.00,2013-10-16 02:48:00,
2013-10-15 19:53:00,65.5,32.4,30.04,West,259,0.0,0.0,29,0.00,,---,0.00,VWS V14.00,2013-10-16 02:53:00,
2013-10-15 19:58:00,65.2,32.2,30.04,West,259,0.0,0.0,29,0.00,,---,0.00,VWS V14.00,2013-10-16 02:58:00,
2013-10-15 20:00:00,65.5,32.4,30.04,West,259,0.0,1.0,29,0.00,,---,0.00,VWS V14.00,2013-10-16 03:00:00,
2013-10-15 20:03:00,64.9,32.8,30.04,West,259,0.0,0.0,30,0.00,,---,0.00,VWS V14.00,2013-10-16 03:03:00,
2013-10-15 20:08:00,64.6,32.5,30.04,West,259,0.0,0.0,30,0.00,,---,0.00,VWS V14.00,2013-10-16 03:08:00,
2013-10-15 20:13:00,64.3,32.2,30.04,West,259,0.0,1.0,30,0.00,,---,0.00,VWS V14.00,2013-10-16 03:13:00,
2013-10-15 20:15:00,64.7,32.6,30.04,West,259,0.0,0.0,30,0.00,,---,0.00,VWS V14.00,2013-10-16 03:15:00,
2013-10-15 20:18:00,64.1,32.1,30.04,West,259,0.0,1.0,30,0.00,,---,0.00,VWS V14.00,2013-10-16 03:18:00,
2013-10-15 20:23:00,63.9,32.7,30.04,West,259,0.0,0.0,31,0.00,,---,0.00,VWS V14.00,2013-10-16 03:23:00,
2013-10-15 20:28:00,63.6,32.4,30.04,West,259,0.0,0.0,31,0.00,,---,0.00,VWS V14.00,2013-10-16 03:28:00,
2013-10-15 20:30:00,63.9,32.7,30.04,West,259,0.0,1.0,31,0.00,,---,0.00,VWS V14.00,2013-10-16 03:30:00,
2013-10-15 20:33:00,63.3,32.2,30.03,West,259,0.0,1.0,31,0.00,,---,0.00,VWS V14.00,2013-10-16 03:33:00,
2013-10-15 20:38:00,63.0,32.7,30.04,West,259,0.0,0.0,32,0.00,,---,0.00,VWS V14.00,2013-10-16 03:38:00,
2013-10-15 20:43:00,62.8,32.5,30.04,West,259,0.0,0.0,32,0.00,,---,0.00,VWS V14.00,2013-10-16 03:43:00,
2013-10-15 20:45:00,63.0,32.7,30.04,West,259,0.0,4.0,32,0.00,,---,0.00,VWS V14.00,2013-10-16 03:45:00,
2013-10-15 20:48:00,62.6,33.1,30.04,West,259,0.0,2.0,33,0.00,,---,0.00,VWS V14.00,2013-10-16 03:48:00,
2013-10-15 20:53:00,62.4,32.9,30.04,West,259,0.0,1.0,33,0.00,,---,0.00,VWS V14.00,2013-10-16 03:53:00,
2013-10-15 20:58:00,62.1,34.2,30.04,West,259,0.0,1.0,35,0.00,,---,0.00,VWS V14.00,2013-10-16 03:58:00,
2013-10-15 21:00:00,62.4,32.9,30.04,West,259,0.0,2.0,33,0.00,,---,0.00,VWS V14.00,2013-10-16 04:00:00,
2013-10-15 21:01:00,62.0,33.3,30.04,West,259,0.0,1.0,34,0.00,,---,0.00,VWS V14.00,2013-10-16 04:01:00,
2013-10-15 21:06:00,61.7,33.1,30.05,West,259,0.0,1.0,34,0.00,,---,0.00,VWS V14.00,2013-10-16 04:06:00,
2013-10-15 21:11:00,61.4,33.5,30.05,West,259,0.0,0.0,35,0.00,,---,0.00,VWS V14.00,2013-10-16 04:11:00,
2013-10-15 21:15:00,61.7,33.8,30.05,West,259,0.0,1.0,35,0.00,,---,0.00,VWS V14.00,2013-10-16 04:15:00,
2013-10-15 21:16:00,61.1,34.0,30.05,West,259,0.0,0.0,36,0.00,,---,0.00,VWS V14.00,2013-10-16 04:16:00,
2013-10-15 21:21:00,60.7,35.0,30.05,West,259,0.0,0.0,38,0.00,,---,0.00,VWS V14.00,2013-10-16 04:21:00,
2013-10-15 21:26:00,60.4,34.7,30.05,West,259,0.0,0.0,38,0.00,,---,0.00,VWS V14.00,2013-10-16 04:26:00,
2013-10-15 21:30:00,60.7,35.0,30.05,West,259,0.0,0.0,38,0.00,,---,0.00,VWS V14.00,2013-10-16 04:30:00,
2013-10-15 21:31:00,59.9,34.9,30.05,West,259,0.0,0.0,39,0.00,,---,0.00,VWS V14.00,2013-10-16 04:31:00,
2013-10-15 21:36:00,59.5,35.2,30.05,West,259,0.0,0.0,40,0.00,,---,0.00,VWS V14.00,2013-10-16 04:36:00,
2013-10-15 21:41:00,59.1,35.4,30.05,West,259,0.0,0.0,41,0.00,,---,0.00,VWS V14.00,2013-10-16 04:41:00,
2013-10-15 21:45:00,59.4,35.1,30.05,West,259,0.0,0.0,40,0.00,,---,0.00,VWS V14.00,2013-10-16 04:45:00,
2013-10-15 21:46:00,58.8,35.2,30.05,West,259,0.0,0.0,41,0.00,,---,0.00,VWS V14.00,2013-10-16 04:46:00,
2013-10-15 21:51:00,58.5,35.5,30.05,West,259,0.0,0.0,42,0.00,,---,0.00,VWS V14.00,2013-10-16 04:51:00,
2013-10-15 21:56:00,58.2,35.2,30.06,West,259,0.0,0.0,42,0.00,,---,0.00,VWS V14.00,2013-10-16 04:56:00,
2013-10-15 22:00:00,58.5,35.5,30.05,West,259,0.0,0.0,42,0.00,,---,0.00,VWS V14.00,2013-10-16 05:00:00,
2013-10-15 22:01:00,57.9,35.6,30.06,West,259,0.0,0.0,43,0.00,,---,0.00,VWS V14.00,2013-10-16 05:01:00,
2013-10-15 22:06:00,57.5,35.8,30.06,West,259,0.0,0.0,44,0.00,,---,0.00,VWS V14.00,2013-10-16 05:06:00,
2013-10-15 22:11:00,57.2,35.5,30.06,West,259,0.0,0.0,44,0.00,,---,0.00,VWS V14.00,2013-10-16 05:11:00,
2013-10-15 22:15:00,57.5,35.8,30.06,West,259,0.0,0.0,44,0.00,,---,0.00,VWS V14.00,2013-10-16 05:15:00,
2013-10-15 22:16:00,56.9,35.8,30.06,West,259,0.0,0.0,45,0.00,,---,0.00,VWS V14.00,2013-10-16 05:16:00,
2013-10-15 22:21:00,56.6,36.1,30.06,West,259,0.0,0.0,46,0.00,,---,0.00,VWS V14.00,2013-10-16 05:21:00,
2013-10-15 22:26:00,56.2,36.3,30.06,West,259,0.0,0.0,47,0.00,,---,0.00,VWS V14.00,2013-10-16 05:26:00,
2013-10-15 22:30:00,56.5,36.0,30.06,West,259,0.0,0.0,46,0.00,,---,0.00,VWS V14.00,2013-10-16 05:30:00,
2013-10-15 22:31:00,55.9,36.0,30.06,West,259,0.0,0.0,47,0.00,,---,0.00,VWS V14.00,2013-10-16 05:31:00,
2013-10-15 22:36:00,55.6,36.2,30.06,West,259,0.0,0.0,48,0.00,,---,0.00,VWS V14.00,2013-10-16 05:36:00,
2013-10-15 22:41:00,55.2,35.9,30.07,West,259,0.0,0.0,48,0.00,,---,0.00,VWS V14.00,2013-10-16 05:41:00,
2013-10-15 22:45:00,55.6,36.2,30.06,West,259,0.0,0.0,48,0.00,,---,0.00,VWS V14.00,2013-10-16 05:45:00,
2013-10-15 22:46:00,54.9,36.1,30.07,West,259,0.0,1.0,49,0.00,,---,0.00,VWS V14.00,2013-10-16 05:46:00,
2013-10-15 22:51:00,54.7,35.9,30.06,West,259,0.0,1.0,49,0.00,,---,0.00,VWS V14.00,2013-10-16 05:51:00,
2013-10-15 22:56:00,54.4,36.2,30.07,West,259,0.0,0.0,50,0.00,,---,0.00,VWS V14.00,2013-10-16 05:56:00,
2013-10-15 23:00:00,54.6,36.3,30.06,West,259,0.0,1.0,50,0.00,,---,0.00,VWS V14.00,2013-10-16 06:00:00,
2013-10-15 23:01:00,54.3,36.1,30.07,West,259,0.0,0.0,50,0.00,,---,0.00,VWS V14.00,2013-10-16 06:01:00,
2013-10-15 23:06:00,54.1,36.9,30.07,West,259,0.0,0.0,52,0.00,,---,0.00,VWS V14.00,2013-10-16 06:06:00,
2013-10-15 23:11:00,53.8,36.1,30.07,West,259,0.0,0.0,51,0.00,,---,0.00,VWS V14.00,2013-10-16 06:11:00,
2013-10-15 23:15:00,54.0,36.8,30.07,West,259,0.0,0.0,52,0.00,,---,0.00,VWS V14.00,2013-10-16 06:15:00,
2013-10-15 23:16:00,53.6,36.4,30.07,West,259,0.0,0.0,52,0.00,,---,0.00,VWS V14.00,2013-10-16 06:16:00,
2013-10-15 23:21:00,53.3,36.1,30.07,West,259,0.0,1.0,52,0.00,,---,0.00,VWS V14.00,2013-10-16 06:21:00,
2013-10-15 23:26:00,53.1,35.5,30.07,West,259,0.0,0.0,51,0.00,,---,0.00,VWS V14.00,2013-10-16 06:26:00,
2013-10-15 23:30:00,53.3,36.1,30.07,West,259,0.0,1.0,52,0.00,,---,0.00,VWS V14.00,2013-10-16 06:30:00,
2013-10-15 23:31:00,52.8,35.2,30.07,West,259,0.0,0.0,51,0.00,,---,0.00,VWS V14.00,2013-10-16 06:31:00,
2013-10-15 23:36:00,52.6,35.5,30.07,West,259,0.0,0.0,52,0.00,,---,0.00,VWS V14.00,2013-10-16 06:36:00,
2013-10-15 23:41:00,52.4,35.8,30.07,West,259,0.0,0.0,53,0.00,,---,0.00,VWS V14.00,2013-10-16 06:41:00,
2013-10-15 23:45:00,52.6,35.5,30.07,West,259,0.0,0.0,52,0.00,,---,0.00,VWS V14.00,2013-10-16 06:45:00,
2013-10-15 23:46:00,52.1,36.0,30.07,West,259,0.0,0.0,54,0.00,,---,0.00,VWS V14.00,2013-10-16 06:46:00,
2013-10-15 23:51:00,51.9,35.8,30.07,West,259,0.0,0.0,54,0.00,,---,0.00,VWS V14.00,2013-10-16 06:51:00,
2013-10-15 23:56:00,51.7,35.6,30.07,West,259,0.0,0.0,54,0.00,,---,0.00,VWS V14.00,2013-10-16 06:56:00,